Weather History for Jamestown, NY

Change the Weather History Date:

Friday, September 13, 2013

  Actual Average Record
Temperature  
Mean Temperature 52 °F -  
Max Temperature 57 °F 74 °F 129 °F (1996)
Min Temperature 46 °F 46 °F 28 °F (1985)
Degree Days  
Heating Degree Days 14    
Growing Degree Days 2 (Base 50)    
Moisture  
Dew Point 46 °F    
Average Humidity 84    
Maximum Humidity 94    
Minimum Humidity 71    
Precipitation  
Precipitation 0.10 in - - ()
Sea Level Pressure  
Sea Level Pressure 29.93 in    
Wind  
Wind Speed 8 mph (NNW)    
Max Wind Speed 13 mph    
Max Gust Speed 20 mph    
Visibility 10 miles    
Events      
Averages and records for this station are not official NWS values.
T = Trace of Precipitation, MM = Missing Value Source: NWS Daily Summary

Daily Weather History Graph

Daily Weather History Graph

Search for Another Location

Airport:

Trip Planner

Search our weather history database for the weather conditions in past years. The results will help you decide how hot, cold, wet, or windy it might be!

Date:

Astronomy

Sep. 13, 2013 Rise Set
Actual Time 6:55 AM EDT 7:29 PM EDT
Civil Twilight 6:27 AM EDT 7:57 PM EDT
Nautical Twilight 5:53 AM EDT 8:31 PM EDT
Astronomical Twilight 5:19 AM EDT 9:05 PM EDT
Moon 3:22 PM EDT (9/13) 12:18 AM EDT (9/13)
Length of Visible Light 13h 30m
Length of Day
12h 34m
First Quarter, 61% of the Moon is Illuminated
Sep 13
First Quarter
Sep 19
Full
Sep 26
Last Quarter
Oct 4
New
Oct 11
First Quarter

Hourly Weather History & Observations

Time (EDT) Temp. Windchill Dew Point Humidity Pressure Visibility Wind Dir Wind Speed Gust Speed Precip Events Conditions
12:15 AM 57.2 °F - 50.0 °F 77% 29.85 in 10.0 mi NW 8.1 mph - N/A   Mostly Cloudy
12:35 AM 57.2 °F - 50.0 °F 77% 29.85 in 10.0 mi NW 6.9 mph - N/A   Overcast
12:55 AM 57.2 °F - 50.0 °F 77% 29.85 in 10.0 mi NW 8.1 mph - N/A   Overcast
1:15 AM 57.2 °F - 50.0 °F 77% 29.83 in 10.0 mi North 4.6 mph - N/A   Scattered Clouds
1:35 AM 55.4 °F - 51.8 °F 88% 29.82 in 10.0 mi North 4.6 mph - N/A   Partly Cloudy
1:55 AM 55.4 °F - 51.8 °F 88% 29.84 in 10.0 mi West 4.6 mph - N/A   Mostly Cloudy
2:15 AM 55.4 °F - 51.8 °F 88% 29.85 in 10.0 mi West 4.6 mph - N/A   Mostly Cloudy
2:35 AM 55.4 °F - 53.6 °F 94% 29.83 in 10.0 mi NW 6.9 mph - N/A   Mostly Cloudy
2:55 AM 55.4 °F - 53.6 °F 94% 29.84 in 10.0 mi NW 5.8 mph - 0.02 in   Overcast
3:15 AM 55.4 °F - 53.6 °F 94% 29.84 in 10.0 mi NNW 5.8 mph - 0.07 in   Mostly Cloudy
3:35 AM 55.4 °F - 53.6 °F 94% 29.84 in 10.0 mi NW 8.1 mph - 0.07 in   Mostly Cloudy
3:55 AM 55.4 °F - 53.6 °F 94% 29.84 in 10.0 mi NNW 8.1 mph - 0.07 in   Overcast
4:15 AM 55.4 °F - 53.6 °F 94% 29.84 in 10.0 mi North 8.1 mph - N/A   Overcast
4:35 AM 55.4 °F - 51.8 °F 88% 29.84 in 10.0 mi North 8.1 mph - N/A   Overcast
4:55 AM 55.4 °F - 51.8 °F 88% 29.84 in 10.0 mi North 6.9 mph - N/A   Overcast
5:15 AM 53.6 °F - 51.8 °F 94% 29.84 in 10.0 mi NNW 8.1 mph - N/A   Overcast
5:35 AM 53.6 °F - 51.8 °F 94% 29.84 in 10.0 mi NNW 8.1 mph - 0.01 in   Overcast
5:55 AM 53.6 °F - 51.8 °F 94% 29.84 in 10.0 mi NNW 9.2 mph - 0.01 in   Overcast
6:15 AM 53.6 °F - 51.8 °F 94% 29.85 in 10.0 mi North 9.2 mph - N/A   Overcast
6:35 AM 53.6 °F - 51.8 °F 94% 29.85 in 8.0 mi NW 8.1 mph - N/A   Overcast
6:55 AM 53.6 °F - 50.0 °F 88% 29.86 in 10.0 mi NNW 11.5 mph - N/A   Overcast
7:15 AM 51.8 °F - 48.2 °F 88% 29.86 in 10.0 mi North 9.2 mph - N/A   Overcast
7:35 AM 51.8 °F - 48.2 °F 88% 29.87 in 10.0 mi North 9.2 mph - N/A   Overcast
7:55 AM 51.8 °F - 48.2 °F 88% 29.88 in 10.0 mi North 8.1 mph - N/A   Overcast
8:15 AM 51.8 °F - 48.2 °F 88% 29.88 in 10.0 mi NNW 9.2 mph - N/A   Overcast
8:35 AM 51.8 °F - 48.2 °F 88% 29.88 in 10.0 mi NNW 9.2 mph - N/A   Overcast
8:55 AM 51.8 °F - 48.2 °F 88% 29.89 in 10.0 mi NNW 10.4 mph 18.4 mph N/A   Mostly Cloudy
9:15 AM 51.8 °F - 48.2 °F 88% 29.89 in 10.0 mi NNW 10.4 mph - N/A   Mostly Cloudy
9:35 AM 51.8 °F - 48.2 °F 88% 29.90 in 10.0 mi North 9.2 mph - N/A   Overcast
9:55 AM 51.8 °F - 46.4 °F 82% 29.90 in 10.0 mi North 10.4 mph - N/A   Overcast
10:15 AM 51.8 °F - 46.4 °F 82% 29.91 in 10.0 mi North 9.2 mph - N/A   Overcast
10:35 AM 51.8 °F - 46.4 °F 82% 29.91 in 10.0 mi NNW 8.1 mph - N/A   Overcast
10:55 AM 51.8 °F - 46.4 °F 82% 29.92 in 10.0 mi North 6.9 mph - N/A   Overcast
11:15 AM 51.8 °F - 46.4 °F 82% 29.92 in 10.0 mi NNW 9.2 mph - N/A   Overcast
11:35 AM 51.8 °F - 46.4 °F 82% 29.93 in 10.0 mi North 9.2 mph - N/A   Overcast
11:55 AM 51.8 °F - 46.4 °F 82% 29.93 in 10.0 mi NNW 9.2 mph - N/A   Overcast
12:15 PM 50.0 °F - 44.6 °F 82% 29.94 in 9.0 mi NNW 10.4 mph 17.3 mph N/A   Overcast
12:35 PM 48.2 °F - 44.6 °F 87% 29.94 in 10.0 mi NNW 9.2 mph - N/A   Overcast
12:55 PM 48.2 °F - 42.8 °F 82% 29.95 in 10.0 mi NNW 11.5 mph 17.3 mph N/A   Overcast
1:15 PM 48.2 °F - 42.8 °F 82% 29.95 in 10.0 mi NNW 12.7 mph - N/A   Overcast
1:35 PM 50.0 °F - 42.8 °F 76% 29.95 in 10.0 mi NNW 9.2 mph - N/A   Overcast
1:55 PM 51.8 °F - 42.8 °F 71% 29.94 in 10.0 mi NNW 9.2 mph - N/A   Overcast
2:15 PM 51.8 °F - 44.6 °F 76% 29.94 in 10.0 mi NNW 12.7 mph 16.1 mph N/A   Overcast
2:35 PM 50.0 °F - 42.8 °F 76% 29.95 in 10.0 mi NNW 11.5 mph 19.6 mph N/A   Overcast
2:55 PM 50.0 °F - 42.8 °F 76% 29.95 in 10.0 mi NNW 11.5 mph - N/A   Overcast
3:15 PM 50.0 °F - 42.8 °F 76% 29.95 in 10.0 mi North 9.2 mph - N/A   Overcast
3:35 PM 50.0 °F - 42.8 °F 76% 29.95 in 10.0 mi NNW 11.5 mph - N/A   Overcast
3:55 PM 50.0 °F - 42.8 °F 76% 29.95 in 10.0 mi North 10.4 mph - N/A   Overcast
4:15 PM 48.2 °F - 42.8 °F 82% 29.96 in 10.0 mi NNW 11.5 mph - N/A   Overcast
4:35 PM 48.2 °F - 41.0 °F 76% 29.96 in 10.0 mi NNW 6.9 mph - N/A   Overcast
4:55 PM 48.2 °F - 42.8 °F 82% 29.97 in 10.0 mi NNW 6.9 mph - N/A   Overcast
5:15 PM 48.2 °F - 41.0 °F 76% 29.97 in 10.0 mi NW 9.2 mph - N/A   Overcast
5:35 PM 48.2 °F - 42.8 °F 82% 29.98 in 10.0 mi NNW 6.9 mph - N/A   Overcast
5:55 PM 48.2 °F - 42.8 °F 82% 29.98 in 10.0 mi NNW 6.9 mph - N/A   Overcast
6:15 PM 48.2 °F - 42.8 °F 82% 29.99 in 10.0 mi NNW 6.9 mph - N/A   Overcast
6:35 PM 48.2 °F - 42.8 °F 82% 29.99 in 10.0 mi NNW 8.1 mph - N/A   Overcast
6:55 PM 48.2 °F - 42.8 °F 82% 29.99 in 10.0 mi NNW 5.8 mph - N/A   Overcast
7:15 PM 48.2 °F - 41.0 °F 76% 30.00 in 10.0 mi NNW 5.8 mph - N/A   Overcast
7:35 PM 48.2 °F - 41.0 °F 76% 30.00 in 10.0 mi NNW 5.8 mph - N/A   Overcast
7:55 PM 46.4 °F 44.3 °F 41.0 °F 81% 30.01 in 10.0 mi North 4.6 mph - N/A   Overcast
8:15 PM 46.4 °F 43.5 °F 41.0 °F 81% 30.01 in 10.0 mi North 5.8 mph - N/A   Overcast
8:35 PM 46.4 °F 43.5 °F 42.8 °F 87% 30.02 in 10.0 mi North 5.8 mph - N/A   Overcast
8:55 PM 46.4 °F 43.5 °F 41.0 °F 81% 30.03 in 10.0 mi North 5.8 mph - N/A   Overcast
9:15 PM 46.4 °F 43.5 °F 42.8 °F 87% 30.03 in 10.0 mi North 5.8 mph - N/A   Overcast
9:35 PM 46.4 °F 44.3 °F 42.8 °F 87% 30.03 in 10.0 mi North 4.6 mph - N/A   Overcast
9:55 PM 46.4 °F 44.3 °F 42.8 °F 87% 30.04 in 10.0 mi North 4.6 mph - N/A   Overcast
10:15 PM 46.4 °F 43.5 °F 42.8 °F 87% 30.04 in 10.0 mi North 5.8 mph - N/A   Overcast
10:35 PM 46.4 °F 44.3 °F 42.8 °F 87% 30.04 in 10.0 mi North 4.6 mph - N/A   Overcast
10:55 PM 46.4 °F 44.3 °F 42.8 °F 87% 30.04 in 10.0 mi North 4.6 mph - N/A   Overcast
11:15 PM 46.4 °F 44.3 °F 42.8 °F 87% 30.04 in 10.0 mi NNW 4.6 mph - N/A   Overcast
11:35 PM 46.4 °F 44.3 °F 42.8 °F 87% 30.04 in 10.0 mi NNW 4.6 mph - N/A   Overcast
11:55 PM 46.4 °F 44.3 °F 42.8 °F 87% 30.04 in 10.0 mi North 4.6 mph - N/A   Overcast